| time (UTC) | temp C | wind direction | speed KPH | gust KPH | rain 1hr cm | rain 24hr cm | rain mn cm | humidity % | barometer mb |
| 20260505080032 | 18 | 189 | 0.0 | 3.2 | 0.00 | 0.00 | 0.00 | 91 | 1010.2 |
| 20260505074525 | 18 | 209 | 0.0 | 3.2 | 0.00 | 0.00 | 0.00 | 91 | 1010.4 |
| 20260505073009 | 18 | 232 | 0.0 | 3.2 | 0.00 | 0.00 | 0.00 | 90 | 1010.3 |
| 20260505071546 | 18 | 295 | 0.0 | 3.2 | 0.00 | 0.00 | 0.00 | 90 | 1010.4 |
| 20260505070041 | 18 | 235 | 0.0 | 4.8 | 0.00 | 0.00 | 0.00 | 88 | 1010.7 |
| 20260505064517 | 18 | 269 | 1.6 | 4.8 | 0.00 | 0.00 | 0.00 | 88 | 1010.8 |
| 20260505063052 | 19 | 179 | 0.0 | 3.2 | 0.00 | 0.00 | 0.00 | 87 | 1011.0 |
| 20260505061536 | 19 | 237 | 0.0 | 8.0 | 0.00 | 0.00 | 0.00 | 86 | 1011.0 |
| 20260505060011 | 20 | 108 | 0.0 | 4.8 | 0.00 | 0.00 | 0.00 | 85 | 1010.9 |
| 20260505054545 | 20 | 217 | 3.2 | 11.3 | 0.00 | 0.00 | 0.00 | 84 | 1010.9 |
| 20260505053111 | 20 | 225 | 3.2 | 12.9 | 0.00 | 0.00 | 0.00 | 84 | 1011.0 |
| 20260505051530 | 20 | 204 | 1.6 | 16.1 | 0.00 | 0.00 | 0.00 | 83 | 1011.1 |
| 20260505050104 | 20 | 141 | 4.8 | 12.9 | 0.00 | 0.00 | 0.00 | 82 | 1011.1 |
| 20260505041544 | 20 | 288 | 1.6 | 9.7 | 0.00 | 0.00 | 0.00 | 80 | 1011.4 |
| 20260505040024 | 20 | 216 | 4.8 | 14.5 | 0.00 | 0.00 | 0.00 | 79 | 1011.4 |
| 20260505034512 | 20 | 147 | 3.2 | 14.5 | 0.00 | 0.00 | 0.00 | 79 | 1011.7 |
| 20260505033038 | 21 | 185 | 3.2 | 9.7 | 0.00 | 0.00 | 0.00 | 78 | 1011.4 |
| 20260505031515 | 21 | 189 | 4.8 | 14.5 | 0.00 | 0.00 | 0.00 | 77 | 1011.3 |
| 20260505030010 | 21 | 214 | 3.2 | 12.9 | 0.00 | 0.00 | 0.00 | 76 | 1011.4 |
| 20260505024527 | 21 | 165 | 3.2 | 12.9 | 0.00 | 0.00 | 0.00 | 76 | 1011.7 |
| 20260505023100 | 21 | 275 | 1.6 | 4.8 | 0.00 | 0.00 | 0.00 | 76 | 1011.5 |
| 20260505021511 | 21 | 214 | 1.6 | 11.3 | 0.00 | 0.00 | 0.00 | 74 | 1011.3 |
| 20260505020035 | 21 | 253 | 3.2 | 12.9 | 0.00 | 0.00 | 0.00 | 74 | 1011.1 |
| 20260505014550 | 21 | 156 | 3.2 | 9.7 | 0.00 | 0.00 | 0.00 | 76 | 1010.9 |
| 20260505013101 | 21 | 202 | 0.0 | 4.8 | 0.00 | 0.00 | 0.00 | 75 | 1011.0 |
| 20260505011544 | 22 | 235 | 1.6 | 9.7 | 0.00 | 0.00 | 0.00 | 72 | 1010.9 |
| 20260505010046 | 22 | 329 | 1.6 | 3.2 | 0.00 | 0.00 | 0.00 | 72 | 1010.6 |
| 20260505004610 | 22 | 154 | 1.6 | 8.0 | 0.00 | 0.00 | 0.00 | 71 | 1010.6 |
| 20260505004501 | 23 | 215 | 0.0 | 8.0 | 0.00 | 0.00 | 0.00 | 70 | 1010.7 |
| 20260505003032 | 23 | 130 | 1.6 | 14.5 | 0.00 | 0.00 | 0.00 | 68 | 1010.8 |
| 20260505001534 | 23 | 318 | 1.6 | 17.7 | 0.00 | 0.00 | 0.00 | 67 | 1011.0 |
| 20260505000038 | 24 | 170 | 3.2 | 16.1 | 0.00 | 0.00 | 0.00 | 67 | 1011.0 |
| 20260504234504 | 25 | 106 | 3.2 | 14.5 | 0.00 | 0.00 | 0.00 | 65 | 1011.0 |
| 20260504233008 | 25 | 312 | 1.6 | 8.0 | 0.00 | 0.00 | 0.00 | 63 | 1011.1 |
| 20260504231534 | 25 | 192 | 1.6 | 12.9 | 0.00 | 0.00 | 0.00 | 62 | 1011.1 |
| 20260504230026 | 25 | 231 | 4.8 | 19.3 | 0.00 | 0.00 | 0.00 | 59 | 1011.3 |
| 20260504224510 | 26 | 147 | 4.8 | 14.5 | 0.00 | 0.00 | 0.00 | 59 | 1011.3 |
| 20260504223033 | 27 | 186 | 1.6 | 19.3 | 0.00 | 0.00 | 0.00 | 57 | 1011.6 |
| 20260504221539 | 26 | 163 | 4.8 | 14.5 | 0.00 | 0.00 | 0.00 | 55 | 1011.7 |
| 20260504220050 | 26 | 162 | 3.2 | 11.3 | 0.00 | 0.00 | 0.00 | 54 | 1011.9 |
| 20260504214540 | 26 | 275 | 3.2 | 19.3 | 0.00 | 0.00 | 0.00 | 53 | 1012.0 |
| 20260504213051 | 27 | 95 | 3.2 | 22.5 | 0.00 | 0.00 | 0.00 | 54 | 1012.1 |
| 20260504211517 | 27 | 56 | 3.2 | 16.1 | 0.00 | 0.00 | 0.00 | 51 | 1012.4 |
| 20260504210023 | 27 | 201 | 3.2 | 22.5 | 0.00 | 0.00 | 0.00 | 49 | 1012.8 |
| 20260504204540 | 27 | 277 | 3.2 | 12.9 | 0.00 | 0.00 | 0.00 | 51 | 1012.9 |
| 20260504203008 | 26 | 214 | 6.4 | 16.1 | 0.00 | 0.00 | 0.00 | 49 | 1013.3 |
| 20260504201541 | 27 | 210 | 3.2 | 19.3 | 0.00 | 0.00 | 0.00 | 49 | 1013.5 |
| 20260504200044 | 27 | 257 | 3.2 | 14.5 | 0.00 | 0.00 | 0.00 | 49 | 1013.9 |
| 20260504194553 | 26 | 214 | 3.2 | 12.9 | 0.00 | 0.00 | 0.00 | 49 | 1014.1 |
| 20260504193057 | 26 | 174 | 3.2 | 12.9 | 0.00 | 0.00 | 0.00 | 48 | 1014.1 |
| 20260504191531 | 26 | 110 | 3.2 | 19.3 | 0.00 | 0.00 | 0.00 | 49 | 1014.4 |
| 20260504190031 | 26 | 265 | 1.6 | 11.3 | 0.00 | 0.00 | 0.00 | 47 | 1014.6 |
| 20260504184501 | 26 | 283 | 1.6 | 11.3 | 0.00 | 0.00 | 0.00 | 50 | 1014.8 |
| 20260504183022 | 25 | 205 | 6.4 | 19.3 | 0.00 | 0.00 | 0.00 | 44 | 1015.1 |
| 20260504181533 | 26 | 194 | 3.2 | 16.1 | 0.00 | 0.00 | 0.00 | 45 | 1015.2 |
| 20260504180055 | 25 | 329 | 4.8 | 14.5 | 0.00 | 0.00 | 0.00 | 48 | 1015.6 |
| 20260504174521 | 25 | 230 | 6.4 | 14.5 | 0.00 | 0.00 | 0.00 | 46 | 1016.0 |
| 20260504173035 | 25 | 289 | 3.2 | 8.0 | 0.00 | 0.00 | 0.00 | 47 | 1016.1 |
| 20260504171506 | 25 | 94 | 4.8 | 16.1 | 0.00 | 0.00 | 0.00 | 51 | 1016.2 |
| 20260504081554 | 11 | 158 | 0.0 | 1.6 | 0.00 | 0.00 | 0.00 | 93 | 1017.6 |